EHI
0 2 6 7 5 2 2 5 9 11 13 17 19 19 17 14 12 10 7 6 5 3 2 1 0 0 0 0 0 0 0 0 0 0 0 0 0 0 0 0 0 0 0
1 3 5 6 6 4 5 8 10 10 11 14 16 15 13 12 10 9 7 5 4 3 1 0 0 0 0 0 0 0 0 0 0 0 0 0 0 0 0 0 0 0 0
2 3 3 3 4 5 6 8 9 9 9 9 10 10 10 9 8 7 6 5 5 4 2 1 1 0 0 0 0 0 0 0 0 0 0 0 0 0 0 0 0 0 0
4 3 2 1 2 3 4 5 7 8 7 5 5 7 8 8 6 5 5 5 5 5 3 3 2 1 0 0 0 0 0 0 0 0 0 0 0 0 0 0 0 0 0
6 5 3 2 2 3 3 4 6 7 6 4 3 5 7 6 4 4 4 5 5 6 5 4 2 1 0 0 0 0 0 0 0 0 0 0 0 0 0 0 0 0 0
6 6 5 5 5 5 4 4 5 6 6 4 3 4 5 5 3 2 4 5 5 6 6 3 1 0 0 0 0 0 0 0 0 0 0 0 0 0 0 0 0 0 0
6 6 6 7 7 7 6 4 4 5 6 5 4 3 4 4 2 3 5 5 4 4 4 3 1 0 0 0 0 0 0 0 0 0 0 0 0 0 0 0 0 0 0
5 4 5 6 8 8 7 6 4 4 5 6 5 5 4 3 3 4 5 4 2 2 3 2 1 0 0 0 0 0 0 0 0 0 0 0 0 0 0 0 0 0 0
2 1 2 3 5 5 5 4 3 3 3 4 4 4 3 2 2 4 4 3 1 1 1 1 0 1 1 0 0 0 0 0 0 0 0 0 0 0 0 0 0 0 0
0 0 0 1 2 2 2 1 1 1 1 1 2 2 1 0 1 2 2 2 1 0 0 0 1 1 1 0 0 0 0 0 0 0 0 0 0 0 0 0 0 0 0
0 0 0 1 0 0 0 0 0 0 0 0 0 0 0 0 0 1 1 1 0 0 0 0 1 1 1 0 0 0 0 0 0 0 0 0 0 0 0 0 0 0 0
0 0 0 0 0 0 0 0 0 0 0 0 0 0 0 0 0 0 0 0 0 0 0 0 0 0 0 0 0 0 0 0 0 0 0 0 0 0 0 0 0 0 0
0 0 0 0 0 0 0 0 0 0 0 0 0 0 0 0 0 0 0 0 0 0 0 0 0 0 0 0 0 0 0 0 0 0 0 0 0 0 0 0 0 0 0
0 0 0 0 0 0 0 0 0 0 0 0 0 0 0 0 0 0 0 0 0 0 0 0 0 0 0 0 0 0 0 0 0 0 0 0 0 0 0 0 0 0 0
0 0 0 0 0 0 0 0 0 0 0 0 0 0 0 0 0 0 0 0 0 0 0 0 0 0 0 0 0 0 0 0 0 0 0 0 0 0 0 0 0 0 0
0 0 0 0 0 0 0 0 0 0 0 0 0 0 0 0 0 0 0 0 0 0 0 0 0 0 0 0 0 0 0 0 0 0 0 0 0 0 0 0 0 0 0
0 0 0 0 0 0 0 0 0 0 0 0 0 0 0 0 0 0 0 0 0 0 0 0 0 0 0 0 0 0 0 0 0 0 0 0 0 0 0 0 0 0 0
0 0 0 0 0 0 0 0 0 0 0 0 0 0 0 0 0 0 0 0 0 0 0 0 0 0 0 0 0 0 0 0 0 0 0 0 0 0 0 0 0 0 0
0 0 0 0 0 0 0 0 0 0 0 0 0 0 0 0 0 0 0 0 0 0 0 0 0 0 0 0 0 0 0 0 0 0 0 0 0 0 0 0 0 0 0
0 0 0 0 0 0 0 0 0 0 0 0 0 0 0 0 0 0 0 0 0 0 0 0 0 0 0 0 0 0 0 0 0 0 0 0 0 0 0 0 0 0 0
0 0 0 0 0 0 0 0 0 0 0 0 0 0 0 0 0 0 0 0 0 0 0 0 0 0 0 0 0 0 0 0 0 0 0 0 0 0 0 0 0 0 0
0 0 0 0 0 0 0 0 0 0 0 0 0 0 0 0 0 0 0 0 0 0 0 0 0 0 0 0 0 0 0 0 0 0 0 0 0 0 0 0 0 0 0
0 0 0 0 0 0 0 0 0 0 0 0 0 0 0 0 0 0 0 0 0 0 0 0 0 0 0 0 0 0 0 0 0 0 0 0 0 0 0 0 0 0 0
0 0 0 0 0 0 0 0 0 0 0 0 0 0 0 0 0 0 0 0 0 0 0 0 0 0 0 0 0 0 0 0 0 0 0 0 0 0 0 0 0 0 0
0 0 0 0 0 0 0 0 0 0 0 0 0 0 0 0 0 0 0 0 0 0 0 0 0 0 0 0 0 0 0 0 0 0 0 0 0 0 0 0 0 0 0
0 0 0 0 0 0 0 0 0 0 0 0 0 0 0 0 0 0 0 0 0 0 0 0 0 0 0 0 0 0 0 0 0 0 0 0 0 0 0 0 0 0 0
Wind_Speed
3 3 2 3 6 8 9 8 8 9 9 10 10 11 12 12 12 12 12 11 11 10 11 11 11 12 12 13 13 13 13 13 13 13 12 12 12 13 13 12 11 7 13
2 2 2 3 5 7 8 8 8 8 8 9 9 10 11 11 11 11 11 11 11 10 10 11 11 11 12 12 13 13 13 12 12 12 11 9 10 11 12 11 10 7 12
2 2 2 3 4 5 7 7 8 8 7 8 9 9 10 11 11 11 10 10 10 10 10 10 10 11 12 12 12 12 12 12 12 11 9 5 6 10 11 10 10 11 12
2 3 3 4 3 4 4 6 7 7 7 7 8 8 9 10 10 10 10 10 10 10 10 10 10 11 11 12 12 12 12 11 10 9 4 3 3 9 10 10 10 11 11
3 4 4 6 4 3 3 3 4 5 6 7 7 7 8 8 9 10 9 9 9 9 9 10 10 11 11 11 11 11 10 10 9 7 3 3 2 8 10 9 9 10 10
4 4 4 6 5 3 3 2 2 2 4 6 6 7 8 8 8 9 9 8 8 8 9 10 10 11 10 10 10 10 10 10 8 4 3 2 2 7 9 9 9 9 9
4 4 4 7 5 4 3 2 1 1 2 3 5 7 8 8 8 8 8 8 9 9 9 10 11 11 10 10 10 10 10 9 5 4 3 2 3 7 8 8 8 8 8
4 4 4 6 6 6 4 3 2 2 2 2 3 6 7 7 8 8 7 9 10 10 10 10 11 11 11 10 10 10 10 9 6 4 3 2 4 7 8 8 7 8 7
5 4 4 4 4 5 6 4 3 3 2 2 2 3 5 6 7 8 7 8 10 11 10 10 10 11 11 10 10 9 9 8 5 3 3 2 4 7 7 7 7 7 7
5 5 5 5 4 3 3 5 5 3 3 3 2 3 3 5 7 7 7 8 9 10 10 10 10 10 10 9 9 8 8 7 4 3 2 3 6 7 7 7 7 7 7
6 5 5 5 5 4 3 4 4 4 3 3 2 3 3 3 4 5 6 7 8 10 11 11 10 10 9 8 8 8 6 3 4 3 2 5 8 8 7 7 7 7 6
6 6 4 5 5 4 4 3 2 2 2 2 2 2 2 2 3 4 6 7 8 9 10 11 10 9 6 4 5 6 3 4 4 3 3 8 9 9 8 8 8 7 7
5 5 5 5 4 4 3 3 2 1 1 2 2 2 2 2 2 3 2 4 5 7 6 7 7 4 4 4 4 3 3 3 3 3 4 8 10 10 9 9 9 8 8
5 6 6 5 4 4 3 3 2 2 2 1 2 2 2 2 2 3 3 3 3 3 4 4 4 5 5 5 5 5 4 3 3 3 4 8 9 10 10 10 10 10 9
5 6 6 5 5 4 3 3 3 2 2 3 2 2 2 2 3 3 3 3 4 4 5 5 5 6 6 6 5 6 5 5 4 4 3 7 8 10 11 11 11 10 10
5 6 6 6 5 4 3 3 3 3 2 2 2 3 3 3 3 3 4 4 4 5 5 6 6 6 5 5 6 6 5 5 4 4 4 5 8 9 11 12 12 11 11
5 6 6 6 5 5 4 4 3 2 2 2 2 3 3 3 3 3 3 3 4 5 5 5 6 4 4 4 5 6 5 5 5 5 5 4 4 8 10 12 12 12 12
5 6 7 6 6 5 4 3 3 2 2 2 2 2 3 3 3 3 3 3 4 4 5 5 5 5 5 5 4 4 4 4 6 6 5 5 4 4 7 11 11 12 12
5 6 6 6 5 5 5 4 3 2 2 2 2 2 2 3 3 3 3 3 3 4 4 5 5 5 5 5 4 4 4 4 5 5 6 6 5 5 4 7 10 10 11
5 6 6 6 5 5 4 3 3 2 2 2 2 3 3 3 3 3 3 3 3 3 4 5 5 5 5 4 4 4 4 4 4 5 6 5 5 6 5 5 5 7 10
5 6 6 6 6 5 3 3 3 3 3 2 2 3 3 3 3 3 2 2 2 3 5 6 4 5 5 3 2 2 2 4 5 5 4 4 5 5 5 5 5 4 4
5 6 6 6 6 5 3 3 3 3 2 3 3 3 3 3 3 3 3 3 3 3 4 5 4 4 3 4 3 2 2 3 4 5 4 5 5 4 5 5 5 5 4
6 7 7 7 6 6 5 3 3 2 2 2 3 2 2 3 3 3 3 3 3 4 4 5 5 5 4 4 4 4 3 4 2 2 5 5 5 4 4 4 5 6 6
6 6 6 6 6 6 5 3 3 2 3 3 3 2 3 3 3 3 3 3 4 3 3 4 4 4 5 5 3 3 2 2 3 2 2 4 5 5 5 4 5 6 6
5 6 6 6 6 5 4 3 3 3 3 3 2 3 3 2 2 3 3 2 3 3 3 3 4 4 4 5 4 3 2 1 2 2 3 2 2 4 4 5 4 4 5
5 5 6 6 7 6 4 4 3 3 3 3 3 3 3 2 2 3 3 2 2 2 3 4 4 5 5 5 4 3 3 3 3 3 3 3 3 3 4 4 5 5 4
Wind_Direction
319 310 340 126 146 146 142 139 134 129 125 125 129 132 133 135 136 137 137 135 132 129 127 123 120 119 116 115 112 109 104 101 98 96 94 93 95 94 90 87 85 79 87
294 321 34 101 133 147 145 144 140 137 134 134 135 138 139 140 140 142 142 141 139 137 134 130 126 123 121 118 116 113 109 106 102 97 91 89 96 98 96 95 95 93 91
352 2 46 81 103 135 151 147 147 147 147 148 146 144 147 148 148 148 148 148 146 143 140 136 132 129 126 123 121 119 116 112 107 101 93 87 100 105 103 100 98 96 93
14 24 49 61 83 107 134 155 157 155 158 161 159 155 155 157 157 156 154 153 151 149 145 140 137 135 132 130 128 125 123 118 111 104 88 86 103 114 110 105 100 97 95
28 21 36 51 55 77 102 131 162 166 167 170 172 168 167 166 165 164 160 157 154 153 149 145 143 141 138 137 135 133 131 127 118 104 93 90 97 118 114 108 103 101 98
25 21 27 41 48 50 61 85 135 175 185 184 186 184 180 177 174 173 168 162 159 158 156 153 151 147 145 144 142 141 138 133 118 108 108 114 119 124 120 116 113 111 106
16 15 25 30 31 35 35 31 5 225 208 205 202 199 193 190 184 180 175 169 167 165 166 162 161 157 154 151 149 147 143 138 129 125 128 140 154 139 131 128 125 120 114
24 12 16 20 22 18 12 7 348 312 260 231 218 210 205 197 194 189 184 178 175 174 173 170 168 166 164 158 155 152 147 145 142 145 151 167 175 148 142 139 134 128 121
24 19 9 4 5 5 1 349 333 329 305 269 247 223 217 207 199 195 189 190 186 182 180 177 174 172 171 165 161 156 153 150 143 156 168 180 192 166 152 149 147 139 133
22 17 5 355 354 349 339 340 334 319 310 291 271 253 229 217 207 201 193 198 196 190 185 183 181 178 174 168 163 159 156 147 152 162 172 199 200 181 167 162 158 151 145
6 2 358 351 345 337 328 335 333 319 305 288 273 257 235 218 209 205 199 200 201 196 190 187 186 183 176 170 164 160 153 153 162 174 189 208 201 193 180 174 170 166 162
347 343 351 345 337 333 329 333 321 309 296 274 261 252 235 214 212 209 203 200 205 200 196 194 191 185 172 164 166 161 157 164 171 187 204 210 206 201 191 185 183 181 179
329 335 339 335 330 328 323 321 318 305 289 268 253 249 245 222 213 210 199 201 205 200 196 197 191 185 173 168 169 170 171 173 182 196 212 216 214 210 202 195 194 193 192
336 331 332 332 328 320 314 309 303 301 290 278 258 240 232 227 218 210 205 198 198 196 192 190 186 184 179 177 177 180 183 186 191 196 213 219 220 218 213 205 203 202 203
336 331 328 328 324 320 316 305 310 297 286 273 262 250 233 224 225 220 215 206 201 195 191 190 189 188 187 183 186 190 194 196 197 199 209 215 219 220 220 215 210 210 211
332 325 323 324 322 321 313 301 294 286 282 277 266 255 241 230 218 215 218 213 209 201 195 192 194 194 194 190 193 196 200 198 200 201 204 213 218 220 222 222 218 217 216
325 323 325 324 329 325 314 299 297 288 286 281 275 264 250 236 220 213 215 217 215 205 197 191 193 191 195 196 201 202 201 203 201 205 207 207 214 219 221 225 225 223 222
329 328 326 329 329 326 319 306 297 290 285 281 281 276 268 247 224 212 214 221 220 205 195 193 192 195 201 202 206 208 206 204 207 208 207 208 209 214 222 227 230 229 227
327 325 325 325 326 324 319 309 299 289 273 274 283 276 275 266 237 210 214 220 214 206 200 198 194 195 201 206 210 211 208 209 210 209 210 212 210 212 215 223 227 231 229
328 328 325 327 329 326 320 316 310 300 290 284 274 270 267 258 245 221 214 216 210 209 202 201 196 195 196 199 209 216 213 213 211 210 214 215 212 213 215 218 220 230 228
335 335 329 331 332 334 332 326 319 310 303 294 270 265 262 258 241 222 221 205 205 218 212 200 197 199 200 181 180 215 237 220 217 216 212 211 214 212 211 218 218 216 225
336 331 327 330 329 328 322 307 293 297 291 281 277 271 262 263 253 230 216 215 211 217 221 204 192 199 202 185 178 171 216 235 228 219 212 213 216 207 212 218 219 219 219
334 330 328 327 326 327 326 318 317 319 308 302 296 286 281 275 265 244 223 218 220 213 216 210 200 199 203 203 191 181 186 213 221 226 217 215 213 208 213 216 219 225 222
323 326 327 328 332 333 334 326 317 311 298 291 297 296 304 289 274 255 240 228 219 209 210 217 212 202 198 205 206 212 202 165 180 227 240 223 216 216 215 219 223 228 225
325 331 332 334 337 338 339 332 315 307 297 302 311 307 302 294 284 277 257 236 222 212 208 211 212 205 205 205 200 197 210 214 192 192 231 236 237 230 223 222 219 223 227
331 336 338 340 340 343 343 339 321 308 310 316 318 310 306 302 292 284 266 237 233 223 214 213 209 210 212 210 204 197 191 194 198 190 212 216 228 234 233 224 219 225 225